Simultaneous Nadir Overpasses (SNOs) Predictions

Prediction of SNOs between METOP-C and LANDSAT-8 Satellite Orbit:

Table of predicted SNOs for the next 14.0 days since TLE Epoch: 9/2/2023
Index Date (METOP-C) Time (METOP-C) Lat,Lon (METOP-C) SZA (METOP-C ) Date (LANDSAT-8) Time (LANDSAT-8) Lat,Lon (LANDSAT-8) SZA (LANDSAT-8 ) Distance(km) Time Diff (sec)
1 09/04/2023 02:45:49 81.20, 179.63 76.09 09/04/2023 02:47:02 81.20, 179.56 76.12 1.25 73
2 09/04/2023 03:36:29 -81.20, -13.07 103.90 09/04/2023 03:36:29 -81.20, -12.88 103.89 3.25 0
3 09/04/2023 04:26:56 81.33, 159.92 76.81 09/04/2023 04:25:42 81.46, 159.84 76.86 15.22 74
4 09/06/2023 22:20:08 81.20,-113.95 77.15 09/06/2023 22:21:16 81.20,-114.07 77.17 2.05 68
5 09/06/2023 23:10:47 -81.21, 53.74 102.79 09/06/2023 23:10:42 -81.22, 53.89 102.78 2.51 5
6 09/09/2023 17:54:26 81.20, -47.60 78.22 09/09/2023 17:55:28 81.21, -47.51 78.26 1.76 62
7 09/09/2023 18:45:04 -81.22, 120.49 101.68 09/09/2023 18:44:54 -81.23, 120.47 101.68 0.68 10
8 09/12/2023 13:28:44 81.21, 19.05 79.34 09/12/2023 13:29:41 81.20, 18.86 79.34 3.22 57
9 09/12/2023 14:19:23 -81.22,-173.21 100.60 09/12/2023 14:19:07 -81.22,-173.14 100.60 1.28 16
10 09/15/2023 09:03:03 81.20, 85.25 80.41 09/15/2023 09:03:53 81.21, 85.43 80.46 3.15 50



Historial Predications of SNOs between METOP-C and LANDSAT-8
